SCP
2 2 2 2 1 1 1 1 1 1 1 1 1 1 1 1 2 2 3 3 3 2 1 1 1 1 1 1 1 1 1 1 1 0 0 0 0 0 0 0 0 0 0
2 2 2 1 1 1 1 1 1 1 1 1 1 1 1 1 1 2 2 2 2 2 1 1 1 1 1 1 1 1 1 1 1 0 0 0 0 0 0 0 0 0 0
2 2 2 1 1 1 1 1 1 1 1 1 1 1 1 1 1 1 2 2 3 3 2 1 1 2 2 1 1 1 1 1 1 1 0 0 0 0 0 0 0 0 0
2 2 2 2 1 1 1 1 1 2 1 1 1 1 1 1 1 1 2 3 4 4 3 2 2 2 2 2 1 1 1 1 1 1 1 1 0 0 0 0 0 0 0
2 2 2 2 2 2 2 2 2 2 2 2 2 1 1 1 1 2 2 2 3 3 2 2 2 2 2 1 1 1 1 1 1 1 1 1 1 1 1 0 0 0 0
2 2 3 3 3 3 2 2 2 3 3 3 2 2 1 1 2 2 2 2 2 2 2 2 2 2 1 1 1 1 1 1 1 1 1 1 1 1 1 1 0 0 0
2 3 3 4 3 3 2 2 3 4 4 4 3 2 2 2 2 2 2 2 1 1 2 2 2 1 1 1 1 1 1 1 1 1 1 1 1 1 1 1 1 0 0
2 2 3 3 3 2 2 3 3 5 5 5 4 3 2 2 2 2 2 1 1 1 1 1 1 1 1 1 1 1 1 1 1 1 1 1 1 1 2 1 1 1 0
2 2 3 3 2 2 3 4 4 5 6 5 4 3 2 2 2 2 1 1 1 1 1 1 1 1 1 1 1 1 1 1 1 1 1 1 1 1 1 1 1 1 1
2 3 3 2 2 2 3 4 5 5 5 4 3 3 2 2 2 2 1 1 1 1 1 1 1 1 1 2 1 1 1 1 1 1 1 1 1 1 1 1 1 1 1
4 3 2 2 2 2 3 3 4 4 4 3 3 3 3 3 2 2 2 2 1 1 1 1 2 2 2 2 2 2 1 1 1 1 1 1 1 1 1 1 1 1 1
5 3 2 2 3 3 3 3 3 3 3 3 3 3 4 4 3 3 3 2 2 2 1 2 2 3 3 2 2 2 2 1 1 1 1 1 1 1 1 1 1 1 1
4 3 3 3 3 3 3 3 3 4 5 4 4 4 5 5 5 4 4 3 3 2 2 2 3 3 3 3 3 2 2 2 1 1 1 1 1 1 1 1 1 1 1
4 3 3 3 3 3 3 4 5 6 7 7 6 5 6 6 6 5 5 4 4 3 3 3 3 3 3 3 3 2 2 1 1 1 1 1 1 1 1 1 1 1 1
5 5 4 4 4 4 4 5 6 8 9 9 7 6 7 7 6 6 5 5 4 4 3 3 3 3 2 2 2 2 2 1 1 1 1 1 1 1 1 1 1 1 1
6 6 6 6 6 6 6 6 8 11 12 11 9 7 7 7 7 6 5 5 5 4 4 3 3 2 2 1 1 1 1 1 1 1 2 2 2 1 1 1 1 1 0
7 7 7 7 7 7 8 8 10 13 13 11 9 7 7 7 7 6 6 5 5 5 4 4 3 3 2 1 1 1 1 1 1 1 2 2 2 2 2 1 1 1 0
8 8 7 8 9 10 10 10 11 14 15 13 9 7 7 7 7 6 6 5 5 5 4 4 4 3 2 1 1 1 1 1 1 1 1 1 1 1 1 1 1 1 1
11 10 11 13 14 13 12 10 9 13 16 13 9 8 8 8 7 7 6 5 5 4 4 4 4 3 2 1 1 1 1 1 1 1 1 1 1 1 1 1 1 1 1
13 13 14 16 17 14 12 11 10 11 13 13 12 11 10 9 8 8 7 6 5 4 4 4 3 3 2 2 1 1 1 1 1 1 1 1 1 1 1 1 1 1 1
13 13 13 15 15 15 15 15 14 13 14 15 16 14 12 10 9 9 9 8 6 5 5 4 4 3 3 2 1 1 2 1 1 1 1 1 0 0 0 1 1 1 1
12 12 13 15 17 21 24 24 22 19 18 18 16 13 11 10 9 9 9 9 8 6 5 4 4 4 4 3 2 1 1 1 1 1 1 1 0 0 0 0 1 1 1
14 14 14 15 18 24 30 31 27 22 19 16 13 11 11 11 11 10 9 10 9 7 5 5 5 5 5 3 2 1 1 1 1 1 1 1 0 0 0 0 0 0 1
14 14 13 12 14 18 23 25 23 20 17 14 12 11 12 12 12 10 10 10 10 9 7 6 6 6 6 4 3 2 2 1 1 1 1 0 0 0 0 0 1 1 1
13 12 10 9 8 9 11 13 14 14 14 12 12 12 12 12 11 9 8 9 10 10 8 7 8 8 7 5 4 3 2 1 1 1 1 1 1 0 0 1 1 1 1
11 10 9 8 7 6 6 7 8 10 11 10 10 12 13 11 9 7 7 8 10 9 8 7 8 8 7 5 3 2 1 1 1 1 1 1 1 1 1 1 1 1 1
Wind_Speed
8 9 9 9 8 6 6 5 5 3 3 2 2 1 1 0 0 1 2 2 2 3 3 2 1 1 1 1 1 2 2 1 1 2 2 2 2 1 1 1 2 3 3
7 8 8 8 8 7 6 6 5 4 4 2 2 2 2 1 1 0 1 2 3 2 3 3 2 2 1 1 1 2 2 1 1 2 2 1 2 2 0 1 1 1 1
12 10 9 8 8 7 7 7 6 5 4 3 2 2 2 2 2 1 0 1 2 2 2 2 2 2 2 1 1 2 3 1 0 2 3 3 2 1 2 1 1 1 1
11 10 10 9 9 8 7 6 6 5 4 4 3 3 2 1 1 1 1 0 1 1 2 2 2 2 1 1 1 1 2 2 1 0 1 2 3 3 0 2 1 1 1
13 13 12 11 10 9 7 6 6 5 4 4 4 3 2 1 1 0 1 0 0 1 1 2 2 2 1 1 1 1 1 2 2 1 1 1 1 2 3 1 1 1 1
13 12 10 9 7 7 7 7 6 5 4 4 4 4 3 2 2 1 1 0 0 0 1 1 1 1 1 1 1 1 1 1 2 1 1 2 2 2 3 2 1 1 0
13 12 11 10 9 8 7 6 7 5 5 5 4 4 4 3 3 2 2 1 0 0 1 1 1 1 1 1 1 1 0 1 1 1 1 1 2 2 2 3 2 1 1
12 13 13 12 11 10 9 8 8 6 6 5 4 3 3 3 2 2 2 2 1 1 0 1 1 1 1 1 1 1 0 1 1 0 0 0 0 1 2 3 3 2 1
13 13 12 12 11 11 10 9 9 7 6 6 5 3 3 3 2 2 2 1 1 1 1 1 1 1 1 1 2 1 0 1 0 0 0 0 0 0 1 2 3 4 3
12 12 12 12 11 10 9 9 8 8 6 6 5 5 3 3 3 2 2 2 1 1 1 1 1 1 1 1 2 1 1 1 1 0 0 1 1 0 0 1 1 1 3
13 12 11 11 10 9 9 8 8 7 6 6 5 4 4 3 3 2 2 2 2 2 2 1 2 2 2 1 2 1 1 1 1 1 1 1 1 1 1 1 1 1 3
11 11 11 10 9 9 9 9 8 8 7 7 5 5 4 4 3 3 2 2 2 2 2 2 2 2 2 1 1 1 0 0 1 1 1 1 1 1 1 1 1 1 2
9 8 8 9 10 10 9 9 8 8 7 7 6 5 5 4 4 3 2 2 2 2 3 3 2 2 2 1 1 1 1 1 0 1 1 1 1 1 1 1 2 1 2
9 8 7 7 8 9 9 9 8 7 7 7 7 6 5 5 4 3 3 2 3 3 2 2 2 2 2 2 1 2 2 2 2 2 2 1 1 1 1 1 1 2 2
10 10 9 7 7 8 8 8 8 8 8 8 7 6 5 5 4 4 3 3 3 3 2 2 2 2 2 1 2 2 2 2 2 3 2 3 3 3 2 2 2 3 2
10 10 9 8 8 8 8 9 8 8 8 8 6 5 6 5 5 4 4 3 3 2 3 3 3 2 2 3 4 4 2 2 2 2 2 2 3 4 4 5 5 4 3
9 9 9 9 8 8 9 9 8 8 8 7 6 6 6 6 5 5 4 4 3 3 3 3 3 3 3 5 5 5 3 3 2 1 1 2 3 3 3 5 6 5 5
9 7 7 7 6 6 7 8 8 8 8 7 6 6 6 6 5 5 5 4 3 3 3 2 3 2 3 5 5 4 4 3 3 2 2 2 2 2 3 3 4 4 3
8 7 7 7 7 8 8 9 8 7 7 6 6 6 6 6 6 5 5 4 4 3 3 2 2 2 2 4 4 4 3 3 3 2 3 3 3 4 5 4 3 3 3
6 6 7 7 8 7 9 9 8 7 7 6 5 5 5 6 6 5 4 3 4 4 3 3 2 2 2 3 4 4 3 3 2 2 3 5 4 5 5 4 3 3 1
7 7 8 8 7 8 9 9 7 7 6 6 6 5 5 5 5 4 4 4 4 4 3 3 2 2 2 3 4 4 2 2 2 1 1 2 4 4 4 3 3 2 1
7 8 9 7 6 8 9 9 6 5 6 6 6 5 4 4 4 5 4 4 4 4 3 2 2 1 1 2 3 4 3 3 3 1 0 1 3 4 4 3 3 4 3
6 6 8 8 6 7 8 9 6 6 7 7 6 4 4 4 4 4 4 4 4 3 3 2 2 1 1 1 3 3 3 3 2 1 2 3 3 3 3 4 4 3 2
6 6 7 7 6 6 7 7 7 7 7 7 6 4 4 4 3 3 3 3 3 3 3 3 2 1 1 0 1 1 1 3 2 2 3 4 4 4 3 3 2 2 1
5 5 6 6 6 6 6 6 6 8 8 6 5 5 4 4 3 3 2 2 2 4 4 4 3 3 2 3 3 3 2 2 2 3 3 3 2 2 2 2 2 2 2
5 5 5 5 5 6 6 6 6 7 8 6 5 4 3 3 3 4 3 6 3 3 4 4 5 3 4 4 4 4 5 6 7 5 3 1 1 0 0 0 1 1 1
Wind_Direction
171 163 162 158 154 152 151 149 146 154 134 117 114 100 87 69 78 138 146 147 139 123 123 132 130 131 138 166 156 139 127 128 121 88 57 27 48 107 178 170 159 171 181
167 168 164 159 160 163 163 158 160 160 153 146 149 152 152 158 162 119 113 136 134 137 139 140 150 154 139 128 144 144 139 163 141 128 109 46 1 353 46 132 160 177 161
174 173 168 166 164 168 171 170 170 164 163 154 124 100 68 48 49 47 68 137 149 156 155 151 154 158 154 170 186 153 147 162 196 150 146 152 198 272 344 19 110 131 124
178 176 170 169 174 176 171 166 165 163 165 153 141 142 137 138 195 186 177 188 158 148 152 155 155 158 147 158 200 154 148 146 185 252 170 165 160 156 169 350 8 90 113
181 180 177 175 175 172 168 167 162 165 166 159 156 149 147 162 173 128 121 111 321 170 165 153 145 153 155 174 175 149 155 159 172 183 177 138 131 145 148 186 307 21 35
181 178 174 166 164 164 166 168 165 170 170 166 159 157 160 165 144 139 146 174 297 288 270 156 155 165 161 181 185 179 174 179 171 171 167 165 169 182 160 168 193 201 279
176 172 168 164 165 165 168 172 172 177 176 168 166 163 166 161 162 167 171 157 84 356 308 93 123 140 151 155 144 127 142 148 145 175 198 192 197 173 155 151 171 185 233
175 173 172 169 169 169 173 174 178 180 178 171 167 165 156 147 161 168 155 160 177 214 246 97 88 95 120 127 117 103 148 115 147 178 177 157 239 174 167 166 160 164 225
172 171 169 168 169 171 175 174 175 173 172 169 163 162 159 148 151 152 152 167 182 173 147 111 101 102 113 113 112 93 57 64 87 276 253 101 300 59 183 171 169 168 187
170 170 170 171 173 174 173 170 168 169 168 170 169 164 170 164 161 153 161 172 177 164 133 107 112 114 106 102 101 85 54 75 357 330 6 335 338 28 74 162 185 161 164
171 172 172 173 170 165 167 163 163 161 165 170 169 159 163 169 162 158 174 174 168 153 138 127 106 101 102 101 102 92 63 60 355 341 16 330 357 31 22 69 95 108 126
163 166 170 166 163 165 167 166 169 169 170 168 165 163 163 161 160 162 166 156 142 135 124 109 100 104 99 97 110 122 26 67 3 340 36 350 21 31 12 61 88 113 132
144 149 159 163 166 168 167 168 171 172 167 162 161 163 163 158 170 168 151 135 128 113 97 96 105 101 95 93 102 120 90 78 33 3 83 36 57 41 32 70 78 78 98
143 144 153 163 164 165 166 167 170 167 161 158 159 162 173 168 163 152 144 139 127 113 107 110 117 114 106 91 79 94 84 63 41 39 63 57 75 98 102 90 95 99 91
152 156 156 157 159 162 163 165 166 164 160 157 160 168 164 153 147 144 149 145 133 135 131 114 103 97 100 80 88 91 90 74 59 48 52 60 75 81 95 102 111 112 108
155 154 153 156 159 162 163 161 161 162 156 155 161 158 148 144 146 146 141 135 135 133 115 110 109 100 95 82 87 96 76 69 69 46 25 50 57 60 68 80 89 104 121
151 151 157 163 165 164 159 159 159 153 149 152 155 154 150 148 152 149 136 136 137 120 107 104 105 104 89 90 91 94 92 70 49 46 38 56 59 70 66 64 61 58 65
145 152 158 154 152 151 146 146 142 143 145 148 150 150 147 146 145 139 137 135 126 121 119 112 114 110 93 97 93 88 85 81 66 56 58 76 52 75 100 91 72 60 49
145 147 150 142 138 140 140 132 131 136 138 142 146 148 146 145 142 143 146 144 133 129 125 113 119 117 98 95 105 108 92 81 54 42 57 75 67 57 91 99 87 61 30
128 126 123 123 129 137 135 129 131 131 136 139 137 137 136 140 144 148 144 134 136 135 125 110 112 118 114 100 111 122 111 96 74 43 40 62 73 67 81 102 100 84 34
117 112 113 120 132 133 126 125 128 136 136 123 114 115 122 131 136 132 125 124 129 124 125 115 99 98 104 107 114 123 125 130 111 80 31 28 61 70 71 86 98 113 107
115 115 114 116 121 126 126 127 132 130 121 117 114 110 112 125 124 125 127 128 131 130 131 120 106 65 58 75 107 116 125 134 126 123 77 47 64 67 65 77 77 70 70
118 115 114 115 115 122 128 130 133 128 122 114 114 111 103 99 115 126 133 131 134 140 144 142 138 105 31 41 72 95 121 130 127 122 111 96 81 67 59 59 62 64 71
123 120 120 122 125 123 124 133 138 132 125 123 123 120 111 97 90 103 126 137 146 151 152 154 160 156 129 96 59 64 94 94 91 75 68 71 62 58 48 41 37 51 84
130 131 135 137 138 132 129 135 139 135 132 131 128 124 120 118 103 90 88 138 170 182 170 175 171 163 180 222 191 154 139 132 125 102 71 58 47 38 23 19 20 28 45
136 133 136 140 143 137 137 145 146 142 140 140 140 136 131 125 122 116 77 44 65 107 137 154 158 175 184 171 147 136 132 130 127 109 98 97 85 74 19 21 19 32 37